Waarnemingen

Advertentie
Mijn weer
Konstanz, Duitsland (10929): temperatuur & dauwpunt: 23.03.2017 21:00:00 - 29.03.2017 21:00:00 (CEST)Konstanz, Duitsland (10929): temperatuur 5cm & temperatuur -5cm: 23.03.2017 21:00:00 - 29.03.2017 21:00:00 (CEST)Konstanz, Duitsland (10929): temperatuur -20cm & temperatuur -100cm: 23.03.2017 21:00:00 - 29.03.2017 21:00:00 (CEST)Konstanz, Duitsland (10929): windsnelheid & windstoten: 23.03.2017 21:00:00 - 29.03.2017 21:00:00 (CEST)Konstanz, Duitsland (10929): windrichting: 23.03.2017 21:00:00 - 29.03.2017 21:00:00 (CEST)Konstanz, Duitsland (10929): luchtdruk: 23.03.2017 21:00:00 - 29.03.2017 21:00:00 (CEST)Konstanz, Duitsland (10929): zicht: 23.03.2017 21:00:00 - 29.03.2017 21:00:00 (CEST)Konstanz, Duitsland (10929): Zonneschijnduur: 23.03.2017 21:00:00 - 29.03.2017 21:00:00 (CEST)Konstanz, Duitsland (10929): neerslag: 23.03.2017 21:00:00 - 29.03.2017 21:00:00 (CEST)
Datum & Tijd tt [°C] td [°C] tt 5cm [°C] tt -5cm [°C] tt -20cm [°C] tt -100cm [°C] ff [km/u] ff [kn] fx [km/u] fx [kn] dd ppp [hPa] vv [km] sd [min] rr [mm]
29.03.2017 21:00:00 13,9 6,3 9,7 15,2 14,6 9,7 4 2 7 4 ZZW 1025,9 57 0 0,0
29.03.2017 20:00:00 16,0 4,9 12,2 16,7 14,7 9,7 5 3 8 4 Z 1024,9 70 33 0,0
29.03.2017 19:00:00 17,9 4,9 18,1 18,5 14,6 9,7 4 2 10 5 ZZO 1024,2 70 60 0,0
29.03.2017 18:00:00 19,6 5,8 22,2 19,8 14,2 9,7 6 3 12 6 ZO 1023,8 66 60 0,0
29.03.2017 17:00:00 18,0 5,9 23,3 20,2 13,7 9,7 7 4 11 6 ZO 1024,4 35 60 0,0
29.03.2017 16:00:00 19,7 6,0 24,4 20,0 13,1 9,7 6 3 13 7 ZZW 1024,8 30 60 0,0
29.03.2017 15:00:00 18,2 6,6 23,2 19,0 12,4 9,7 6 4 15 8 ZZO 1025,7 30 60 0,0
29.03.2017 14:00:00 17,3 6,4 21,9 17,9 11,8 9,7 8 4 13 7 ZO 1026,5 30 60 0,0
29.03.2017 13:00:00 16,2 6,2 21,2 16,2 11,2 9,6 8 4 13 7 ZO 1027,4 30 60 0,0
29.03.2017 12:00:00 15,4 6,2 19,3 14,3 10,8 9,6 5 3 9 5 ZZO 1028,0 30 60 0,0
29.03.2017 11:00:00 13,6 6,3 16,6 11,8 10,6 9,6 4 2 6 3 ZO 1028,5 30 45 0,0
29.03.2017 10:00:00 10,8 6,1 11,5 10,3 10,6 9,6 3 2 5 3 Z 1028,8 35 43 0,0
29.03.2017 09:00:00 9,0 6,3 8,1 9,2 10,7 9,6 2 1 9 5 ZW 1029,0 30 31 0,0
29.03.2017 08:00:00 7,2 5,2 6,6 8,8 10,9 9,6 3 2 7 4 ZW 1029,1 20 1 0,0
29.03.2017 07:00:00 7,0 4,8 4,6 8,9 11,1 9,6 6 3 10 5 OZO 1028,5 22 0 0,0
29.03.2017 06:00:00 7,3 4,9 5,5 9,1 11,4 9,6 4 2 10 6 OZO 1028,3 20 0 0,0
29.03.2017 05:00:00 7,6 5,2 5,9 9,4 11,6 9,6 1 1 6 4 OZO 1028,2 24 0 0,0
29.03.2017 04:00:00 7,5 5,0 4,8 9,8 11,9 9,6 3 1 9 5 OZO 1027,9 22 0 0,0
29.03.2017 03:00:00 8,3 5,2 5,4 10,3 12,2 9,6 2 1 9 5 WZW 1027,7 22 0 0,0
29.03.2017 02:00:00 8,9 5,9 5,9 10,8 12,4 9,6 5 3 7 4 WZW 1027,3 30 0 0,0
29.03.2017 01:00:00 10,8 6,1 8,0 11,3 12,7 9,5 5 3 8 4 ZW 1026,6 36 0 0,0
29.03.2017 00:00:00 11,5 5,2 7,6 11,8 13,0 9,5 5 3 8 5 ZW 1025,9 35 0 0,0
28.03.2017 23:00:00 11,4 5,9 8,0 12,5 13,3 9,5 3 2 5 3 ZW 1025,4 28 0 0,0
28.03.2017 22:00:00 11,3 6,2 8,2 13,4 13,6 9,5 2 1 6 3 Z 1025,1 16 0 0,0
28.03.2017 21:00:00 12,4 6,2 9,7 14,5 13,8 9,5 3 2 7 4 ZZO 1024,4 19 0 0,0
28.03.2017 20:00:00 15,5 6,5 13,1 16,0 13,9 9,5 5 3 8 4 ZZO 1023,3 23 36 0,0
28.03.2017 19:00:00 17,8 6,0 17,2 17,8 13,8 9,5 4 2 8 4 Z 1022,5 27 60 0,0
28.03.2017 18:00:00 19,5 5,7 21,3 19,2 13,4 9,5 6 3 11 6 ZZW 1021,9 34 60 0,0
28.03.2017 17:00:00 19,4 5,6 23,3 19,6 12,8 9,5 7 4 10 6 ZW 1022,0 30 60 0,0
28.03.2017 16:00:00 19,6 5,7 25,2 19,3 12,1 9,5 5 3 12 6 ZZW 1022,1 30 60 0,0
28.03.2017 15:00:00 17,4 6,9 24,2 18,3 11,4 9,5 6 3 9 5 ZO 1023,0 25 60 0,0
28.03.2017 14:00:00 16,4 6,9 21,5 16,8 10,7 9,5 6 4 12 7 ZZO 1023,5 24 60 0,0
28.03.2017 13:00:00 13,5 5,6 17,6 14,9 10,1 9,5 7 4 11 6 ZZO 1024,6 25 60 0,0
28.03.2017 12:00:00 12,5 4,9 16,0 13,0 9,7 9,5 5 3 9 5 ZZO 1025,2 25 60 0,0
28.03.2017 11:00:00 11,1 4,6 13,5 10,6 9,4 9,5 4 2 10 5 ZO 1025,5 22 60 0,0
28.03.2017 10:00:00 8,2 3,7 8,9 8,5 9,4 9,5 7 4 10 6 ZO 1025,8 22 60 0,0
28.03.2017 09:00:00 6,6 3,4 4,3 7,0 9,6 9,5 1 1 8 4 ZO 1025,8 20 60 0,0
28.03.2017 08:00:00 4,1 3,5 2,0 6,8 9,8 9,5 4 2 7 4 ZZO 1025,9 17 16 0,0
28.03.2017 07:00:00 3,8 3,2 1,6 7,1 10,1 9,4 7 4 8 5 ZO 1025,6 16 0 0,0
28.03.2017 06:00:00 4,2 3,5 1,6 7,4 10,4 9,4 4 2 5 3 ZZO 1025,1 18 0 0,0
28.03.2017 05:00:00 4,6 4,0 1,6 7,8 10,6 9,4 3 1 9 5 OZO 1024,6 13 0 0,0
28.03.2017 04:00:00 5,2 3,5 1,5 8,2 10,9 9,4 6 3 6 4 ZW 1024,4 18 0 0,0
28.03.2017 03:00:00 5,8 3,7 2,1 8,7 11,2 9,4 4 2 6 3 W 1024,2 21 0 0,0
28.03.2017 02:00:00 6,3 3,5 3,2 9,2 11,6 9,4 4 2 8 5 Z 1024,2 26 0 0,0
28.03.2017 01:00:00 7,0 3,7 4,1 9,7 11,9 9,4 6 3 9 5 OZO 1023,9 28 0 0,0
28.03.2017 00:00:00 7,9 3,8 4,3 10,4 12,2 9,4 5 3 8 4 OZO 1023,4 31 0 0,0
27.03.2017 23:00:00 9,0 3,7 4,7 11,1 12,5 9,4 1 1 6 3 ZW 1023,0 30 0 0,0
27.03.2017 22:00:00 10,0 3,3 6,1 12,0 12,8 9,4 6 3 9 5 OZO 1022,7 39 0 0,0
27.03.2017 21:00:00 11,3 3,3 7,2 13,2 13,1 9,4 5 3 7 4 ZO 1022,1 33 0 0,0
27.03.2017 20:00:00 12,5 3,5 9,0 14,7 13,2 9,4 4 2 8 5 ZZO 1021,4 40 41 0,0
27.03.2017 19:00:00 16,8 3,2 15,5 16,5 13,0 9,4 6 3 12 6 Z 1020,4 55 60 0,0
27.03.2017 18:00:00 17,0 2,3 19,9 18,0 12,7 9,4 8 4 14 7 Z 1020,4 46 60 0,0
27.03.2017 17:00:00 16,8 2,9 22,2 18,4 12,1 9,4 6 3 11 6 Z 1020,7 30 60 0,0
27.03.2017 16:00:00 16,3 2,2 20,4 18,0 11,5 9,4 8 5 18 10 ZZW 1021,1 25 60 0,0
27.03.2017 15:00:00 15,2 3,3 20,0 17,1 10,8 9,4 7 4 14 8 ZZW 1021,6 30 60 0,0
27.03.2017 14:00:00 13,3 2,2 17,8 15,7 10,1 9,4 9 5 16 9 ZZW 1022,5 35 60 0,0
27.03.2017 13:00:00 11,7 1,2 16,0 14,0 9,5 9,4 6 4 11 6 Z 1023,0 40 60 0,0
27.03.2017 12:00:00 10,1 0,1 13,5 11,9 9,0 9,4 5 3 11 6 ZZO 1023,1 35 60 0,0
27.03.2017 11:00:00 8,5 -0,5 11,2 9,7 8,8 9,4 6 3 10 6 ZZW 1023,6 35 60 0,0
27.03.2017 10:00:00 6,9 -1,7 8,7 7,4 8,8 9,4 5 3 8 5 ZZO 1023,7 30 60 0,0
27.03.2017 09:00:00 4,7 -2,5 3,5 5,9 9,0 9,4 5 3 8 4 WZW 1023,9 30 60 0,0
27.03.2017 08:00:00 2,6 -1,8 0,8 5,9 9,3 9,4 6 3 9 5 ZW 1023,8 45 19 0,0
27.03.2017 07:00:00 3,4 -2,3 0,6 6,2 9,5 9,3 5 3 17 9 WZW 1023,1 45 0 0,0
27.03.2017 06:00:00 3,9 -2,2 2,3 6,5 9,8 9,3 11 6 18 10 OZO 1022,6 20 0 0,0
27.03.2017 05:00:00 4,0 -2,1 1,5 6,9 10,1 9,3 8 4 11 6 OZO 1022,6 70 0 0,0
27.03.2017 04:00:00 5,3 -2,6 2,4 7,4 10,4 9,3 5 3 19 11 ZO 1022,6 70 0 0,0
27.03.2017 03:00:00 5,3 -1,9 3,2 7,8 10,7 9,3 8 4 16 9 ZO 1022,9 70 0 0,0
27.03.2017 02:00:00 5,8 -1,8 3,5 8,4 11,0 9,3 10 5 24 13 ZO 1023,2 70 0 0,0
27.03.2017 01:00:00 7,1 -1,0 5,1 8,9 11,3 9,3 10 5 20 11 ZO 1023,5 70 0 0,0
27.03.2017 00:00:00 7,0 0,6 4,5 9,6 11,6 9,3 8 4 12 6 ZO 1023,5 62 0 0,0
26.03.2017 23:00:00 7,8 1,7 4,5 10,3 11,9 9,3 7 4 14 8 ZO 1023,3 43 0 0,0
26.03.2017 22:00:00 8,1 3,7 6,6 11,2 12,2 9,3 9 5 11 6 OZO 1023,0 18 0 0,0
26.03.2017 21:00:00 10,0 3,8 9,0 12,2 12,4 9,3 5 3 9 5 ZZO 1022,3 20 0 0,0
26.03.2017 20:00:00 9,7 4,1 7,8 13,1 12,5 9,3 4 2 8 4 ZO 1021,9 20 8 0,0
26.03.2017 19:00:00 11,6 3,9 10,9 14,5 12,4 9,3 3 2 16 8 Z 1021,2 22 15 0,0
26.03.2017 18:00:00 12,7 3,4 15,2 15,7 12,2 9,3 8 4 14 8 Z 1021,0 21 58 0,0
26.03.2017 17:00:00 12,0 3,4 14,3 16,2 11,8 9,3 7 4 16 9 Z 1020,8 22 38 0,0
26.03.2017 16:00:00 12,4 2,8 18,0 16,5 11,2 9,3 9 5 16 9 Z 1020,7 22 58 0,0
26.03.2017 15:00:00 13,8 3,2 19,9 15,9 10,7 9,3 5 3 16 9 Z 1020,8 22 60 0,0
26.03.2017 14:00:00 11,3 2,2 16,9 13,9 10,2 9,3 5 3 16 9 ZZO 1021,4 25 49 0,0
26.03.2017 13:00:00 10,2 2,2 13,5 12,7 9,8 9,3 10 5 19 10 OZO 1022,0 25 60 0,0
26.03.2017 12:00:00 9,1 2,6 12,6 11,4 9,5 9,2 8 4 14 8 ZO 1021,8 26 60 0,0
26.03.2017 11:00:00 8,0 1,8 10,8 9,1 9,4 9,2 3 2 12 6 ZZO 1022,1 26 6 0,0
26.03.2017 10:00:00 6,4 1,9 6,9 8,0 9,4 9,2 5 3 14 7 OZO 1022,5 28 0 0,0
26.03.2017 09:00:00 5,8 1,9 6,0 7,6 9,5 9,2 8 4 15 8 ZO 1022,0 30 0 0,0
26.03.2017 08:00:00 5,5 1,7 5,5 7,4 9,7 9,2 8 4 12 7 OZO 1021,1 30 0 0,0
26.03.2017 07:00:00 4,9 1,6 4,4 7,2 9,9 9,2 6 3 9 5 ZW 1020,2 20 0 0,0
26.03.2017 06:00:00 4,6 1,5 1,7 7,4 10,1 9,2 5 3 9 5 OZO 1019,6 25 0 0,0
26.03.2017 05:00:00 5,8 1,7 2,4 7,9 10,4 9,2 5 3 10 5 W 1019,0 38 0 0,0
26.03.2017 04:00:00 6,6 1,7 3,1 8,4 10,6 9,2 4 2 20 11 ZO 1018,7 39 0 0,0
26.03.2017 03:00:00 7,7 1,9 6,0 8,8 10,9 9,2 12 7 24 13 ZO 1018,3 39 0 0,0
26.03.2017 02:00:00 8,4 1,9 7,1 9,2 11,1 9,2 16 8 32 18 ZO 1018,3 42 0 0,0
26.03.2017 01:00:00 8,8 1,2 7,5 9,6 11,4 9,2 16 9 32 17 ZO 1018,3 51 0 0,0
26.03.2017 00:00:00 9,1 1,4 7,8 10,1 11,6 9,2 14 8 29 16 ZO 1018,3 50 0 0,0
25.03.2017 23:00:00 9,8 1,6 8,4 10,6 11,9 9,2 16 9 42 23 ZO 1018,4 48 0 0,0
25.03.2017 22:00:00 10,4 1,7 9,0 11,2 12,1 9,2 19 11 40 21 ZO 1018,4 44 0 0,0
25.03.2017 21:00:00 11,0 2,2 9,8 12,1 12,3 9,2 20 11 38 21 ZO 1018,3 40 0 0,0
25.03.2017 20:00:00 12,2 3,4 10,8 13,1 12,5 9,1 16 9 38 21 ZO 1017,9 34 30 0,0
25.03.2017 19:00:00 13,8 4,4 13,0 14,5 12,4 9,1 18 10 35 19 ZO 1017,5 27 60 0,0
25.03.2017 18:00:00 15,0 4,5 17,5 15,9 12,1 9,1 15 8 34 18 ZO 1017,6 30 60 0,0
25.03.2017 17:00:00 15,0 5,4 18,4 16,3 11,8 9,1 20 11 39 21 ZO 1018,2 27 60 0,0
25.03.2017 16:00:00 14,8 5,7 18,9 16,1 11,3 9,1 19 10 39 21 ZO 1018,9 25 60 0,0
25.03.2017 15:00:00 14,5 5,9 18,8 15,5 10,7 9,1 19 10 32 17 ZO 1019,7 24 60 0,0
25.03.2017 14:00:00 12,4 5,5 17,0 13,9 10,3 9,1 16 8 31 17 ZO 1021,2 20 52 0,0
25.03.2017 13:00:00 10,6 4,9 13,8 12,1 10,0 9,1 19 10 30 16 ZO 1022,4 18 39 0,0
25.03.2017 12:00:00 9,2 4,4 11,2 10,7 9,9 9,1 17 9 30 16 ZO 1023,3 17 5 0,0
25.03.2017 11:00:00 8,5 4,4 10,2 9,7 9,8 9,1 14 8 32 17 ZO 1023,9 17 4 0,0
25.03.2017 10:00:00 8,4 4,3 9,7 9,2 9,8 9,1 14 8 31 17 ZO 1024,0 17 9 0,0
25.03.2017 09:00:00 7,1 4,0 7,6 8,8 9,9 9,1 16 9 29 15 ZO 1024,4 15 0 0,0
25.03.2017 08:00:00 7,0 4,3 7,1 8,7 10,0 9,1 9 5 16 9 ZO 1024,6 15 0 0,0
25.03.2017 07:00:00 7,0 4,2 6,9 8,8 10,1 9,1 11 6 22 12 ZO 1024,5 15 0 0,0
25.03.2017 06:00:00 7,2 4,4 7,1 8,9 10,2 9,1 14 8 30 16 ZO 1024,6 15 0 0,0
25.03.2017 05:00:00 7,5 4,6 7,4 9,1 10,3 9,1 11 6 25 13 ZO 1024,7 15 0 0,0
25.03.2017 04:00:00 7,8 4,8 7,7 9,3 10,4 9,0 13 7 27 14 ZO 1025,0 15 0 0,0
25.03.2017 03:00:00 7,8 4,7 7,8 9,4 10,6 9,0 12 7 24 13 ZO 1025,6 14 0 0,0
25.03.2017 02:00:00 8,1 4,9 8,0 9,7 10,7 9,0 13 7 28 15 ZO 1025,9 13 0 0,0
25.03.2017 01:00:00 8,2 5,0 8,1 9,9 10,8 9,0 10 5 27 14 ZO 1025,9 14 0 0,0
25.03.2017 00:00:00 8,4 5,4 8,4 10,1 11,0 9,0 9 5 21 12 OZO 1026,0 13 0 0,0
24.03.2017 23:00:00 8,5 5,6 8,5 10,3 11,1 9,0 12 6 28 15 ZO 1025,9 12 0 0,0
24.03.2017 22:00:00 8,7 5,7 8,7 10,6 11,3 9,0 12 7 28 15 OZO 1025,6 14 0 0,0
24.03.2017 21:00:00 8,7 5,7 8,7 11,0 11,4 9,0 12 6 23 13 ZO 1025,2 14 0 0,0
24.03.2017 20:00:00 8,8 5,8 8,8 11,6 11,5 9,0 11 6 24 13 ZO 1024,9 14 0 0,0
24.03.2017 19:00:00 9,4 5,9 9,7 12,4 11,5 9,0 11 6 22 12 OZO 1024,3 15 0 0,0
24.03.2017 18:00:00 10,1 5,8 10,8 13,2 11,4 9,0 12 6 24 13 ZO 1023,9 17 2 0,0
24.03.2017 17:00:00 11,4 6,4 13,4 13,8 11,1 9,0 10 5 25 13 OZO 1023,3 20 3 0,0
24.03.2017 16:00:00 12,0 6,5 14,6 13,5 10,8 9,0 9 5 29 16 ZO 1022,9 18 21 0,0
24.03.2017 15:00:00 12,3 6,7 15,5 13,3 10,5 9,0 16 9 25 14 ZO 1022,6 17 32 0,0
24.03.2017 14:00:00 11,8 6,5 13,8 12,5 10,2 9,0 10 5 23 12 OZO 1022,6 12 1 0,0
24.03.2017 13:00:00 11,6 6,5 12,8 12,1 10,0 8,9 11 6 23 12 ZO 1022,1 12 21 0,0
24.03.2017 12:00:00 10,9 6,7 13,2 11,0 9,8 8,9 6 4 16 9 OZO 1021,9 12 28 0,0
24.03.2017 11:00:00 9,0 6,1 10,7 9,7 9,7 8,9 6 4 14 7 ZO 1022,5 7 0 0,0
24.03.2017 10:00:00 8,1 6,3 8,5 9,0 9,7 8,9 9 5 14 8 ZO 1022,4 7 0 0,0
24.03.2017 09:00:00 7,6 6,3 7,8 8,6 9,8 8,9 5 3 8 5 ZO 1021,9 6 0 0,0
24.03.2017 08:00:00 7,0 6,4 7,0 8,3 9,9 8,9 2 1 13 7 Z 1021,8 4,5 0 0,0
24.03.2017 07:00:00 6,6 6,0 5,6 8,2 10,1 8,9 7 4 10 5 OZO 1021,4 7 0 0,0
24.03.2017 06:00:00 6,6 6,0 5,1 8,4 10,3 8,9 3 2 10 5 Z 1021,3 7 0 0,0
24.03.2017 05:00:00 7,0 6,1 5,9 8,7 10,5 8,9 7 4 13 7 WZW 1020,7 7 0 0,0
24.03.2017 04:00:00 7,4 6,2 6,3 9,0 10,8 8,9 7 4 11 6 WZW 1019,7 8 0 0,0
24.03.2017 03:00:00 8,3 6,5 6,9 9,4 11,0 8,9 6 3 13 7 ZW 1018,3 10 0 0,0
24.03.2017 02:00:00 8,5 6,4 6,9 9,7 11,3 8,9 7 4 17 9 ZW 1017,6 12 0 0,0
24.03.2017 01:00:00 9,1 6,7 7,6 10,3 11,6 8,9 9 5 18 10 OZO 1016,2 14 0 0,0
24.03.2017 00:00:00 10,0 7,2 8,6 10,9 11,8 8,9 10 5 23 12 OZO 1015,4 16 0 0,0
23.03.2017 23:00:00 10,5 7,4 8,7 11,5 12,1 8,9 7 4 24 13 ZO 1014,6 18 0 0,0
23.03.2017 22:00:00 11,3 8,1 9,9 12,3 12,3 8,9 14 8 29 15 OZO 1014,0 20 0 0,0
23.03.2017 21:00:00 - - - - - - - - - - - - - - -

tt = temperatuur
td = dauwpunt
tt 5cm = temperatuur 5cm
tt -5cm = temperatuur -5cm
tt -20cm = temperatuur -20cm
tt -100cm = temperatuur -100cm
ff = windsnelheid
fx = windstoten
dd = windrichting
ppp = luchtdruk
vv = zicht
sd = Zonneschijnduur
rr = neerslag

Weerstations in de omgeving